owner,sensor,date,latitude,longitude,vertical_datum,sea_water_practical_salinity,qcFlag 
LUMCON,ioos:station:LUMCON:wisl1:1,2019-09-01T00:00:00Z,29.1144,-90.1840,2.187,22.14,11111222 
LUMCON,ioos:station:LUMCON:wisl1:1,2019-09-01T00:15:00Z,29.1144,-90.1840,2.176,22.16,11111222 
LUMCON,ioos:station:LUMCON:wisl1:1,2019-09-01T00:30:00Z,29.1144,-90.1840,2.166,22.15,11111222 
LUMCON,ioos:station:LUMCON:wisl1:1,2019-09-01T00:45:00Z,29.1144,-90.1840,2.171,22.13,11111222 
LUMCON,ioos:station:LUMCON:wisl1:1,2019-09-01T01:00:00Z,29.1144,-90.1840,2.159,22.11,11111222 
LUMCON,ioos:station:LUMCON:wisl1:1,2019-09-01T01:15:00Z,29.1144,-90.1840,2.16,22.09,11111222 
LUMCON,ioos:station:LUMCON:wisl1:1,2019-09-01T01:30:00Z,29.1144,-90.1840,2.156,22.07,11111222 
LUMCON,ioos:station:LUMCON:wisl1:1,2019-09-01T01:45:00Z,29.1144,-90.1840,2.154,22.03,11111222 
LUMCON,ioos:station:LUMCON:wisl1:1,2019-09-01T02:00:00Z,29.1144,-90.1840,2.156,21.97,11111222 
LUMCON,ioos:station:LUMCON:wisl1:1,2019-09-01T02:15:00Z,29.1144,-90.1840,2.159,21.91,11111222 
LUMCON,ioos:station:LUMCON:wisl1:1,2019-09-01T02:30:00Z,29.1144,-90.1840,2.168,21.89,11111222 
LUMCON,ioos:station:LUMCON:wisl1:1,2019-09-01T02:45:00Z,29.1144,-90.1840,2.164,21.84,11111222 
LUMCON,ioos:station:LUMCON:wisl1:1,2019-09-01T03:00:00Z,29.1144,-90.1840,2.176,21.79,11111222 
LUMCON,ioos:station:LUMCON:wisl1:1,2019-09-01T03:15:00Z,29.1144,-90.1840,2.175,21.75,11111222 
LUMCON,ioos:station:LUMCON:wisl1:1,2019-09-01T03:30:00Z,29.1144,-90.1840,2.177,21.71,11111222 
LUMCON,ioos:station:LUMCON:wisl1:1,2019-09-01T03:45:00Z,29.1144,-90.1840,2.19,21.65,11111222 
LUMCON,ioos:station:LUMCON:wisl1:1,2019-09-01T04:00:00Z,29.1144,-90.1840,2.196,21.63,11111222 
LUMCON,ioos:station:LUMCON:wisl1:1,2019-09-01T04:15:00Z,29.1144,-90.1840,2.202,21.58,11111222 
LUMCON,ioos:station:LUMCON:wisl1:1,2019-09-01T04:30:00Z,29.1144,-90.1840,2.213,21.55,11111222 
LUMCON,ioos:station:LUMCON:wisl1:1,2019-09-01T04:45:00Z,29.1144,-90.1840,2.224,21.57,11111222 
LUMCON,ioos:station:LUMCON:wisl1:1,2019-09-01T05:00:00Z,29.1144,-90.1840,2.241,21.53,11111222 
LUMCON,ioos:station:LUMCON:wisl1:1,2019-09-01T05:15:00Z,29.1144,-90.1840,2.255,21.56,11111222 
LUMCON,ioos:station:LUMCON:wisl1:1,2019-09-01T05:30:00Z,29.1144,-90.1840,2.269,21.6,11111222 
LUMCON,ioos:station:LUMCON:wisl1:1,2019-09-01T05:45:00Z,29.1144,-90.1840,2.27,21.68,11111222 
LUMCON,ioos:station:LUMCON:wisl1:1,2019-09-01T06:00:00Z,29.1144,-90.1840,2.279,21.73,11111222 
LUMCON,ioos:station:LUMCON:wisl1:1,2019-09-01T06:15:00Z,29.1144,-90.1840,2.281,21.79,11111222 
LUMCON,ioos:station:LUMCON:wisl1:1,2019-09-01T06:30:00Z,29.1144,-90.1840,2.295,21.8,11111222 
LUMCON,ioos:station:LUMCON:wisl1:1,2019-09-01T06:45:00Z,29.1144,-90.1840,2.302,21.87,11111222 
LUMCON,ioos:station:LUMCON:wisl1:1,2019-09-01T07:00:00Z,29.1144,-90.1840,2.306,21.92,11111222 
LUMCON,ioos:station:LUMCON:wisl1:1,2019-09-01T07:15:00Z,29.1144,-90.1840,2.308,21.98,11111222 
LUMCON,ioos:station:LUMCON:wisl1:1,2019-09-01T07:30:00Z,29.1144,-90.1840,2.309,22.0,11111222 
LUMCON,ioos:station:LUMCON:wisl1:1,2019-09-01T07:45:00Z,29.1144,-90.1840,2.318,22.03,11111222 
LUMCON,ioos:station:LUMCON:wisl1:1,2019-09-01T08:00:00Z,29.1144,-90.1840,2.322,22.22,11111222 
LUMCON,ioos:station:LUMCON:wisl1:1,2019-09-01T08:15:00Z,29.1144,-90.1840,2.325,22.27,11111222 
LUMCON,ioos:station:LUMCON:wisl1:1,2019-09-01T08:30:00Z,29.1144,-90.1840,2.328,22.26,11111222 
LUMCON,ioos:station:LUMCON:wisl1:1,2019-09-01T08:45:00Z,29.1144,-90.1840,2.334,22.21,11111222 
LUMCON,ioos:station:LUMCON:wisl1:1,2019-09-01T09:00:00Z,29.1144,-90.1840,2.349,21.85,11111222 
LUMCON,ioos:station:LUMCON:wisl1:1,2019-09-01T09:15:00Z,29.1144,-90.1840,2.361,21.64,11111222 
LUMCON,ioos:station:LUMCON:wisl1:1,2019-09-01T09:30:00Z,29.1144,-90.1840,2.363,21.5,11111222 
LUMCON,ioos:station:LUMCON:wisl1:1,2019-09-01T09:45:00Z,29.1144,-90.1840,2.374,21.39,11111222 
LUMCON,ioos:station:LUMCON:wisl1:1,2019-09-01T10:00:00Z,29.1144,-90.1840,2.386,21.31,11111222 
LUMCON,ioos:station:LUMCON:wisl1:1,2019-09-01T10:15:00Z,29.1144,-90.1840,2.394,21.28,11111222 
LUMCON,ioos:station:LUMCON:wisl1:1,2019-09-01T10:30:00Z,29.1144,-90.1840,2.393,21.27,11111222 
LUMCON,ioos:station:LUMCON:wisl1:1,2019-09-01T10:45:00Z,29.1144,-90.1840,2.394,21.24,11111222 
LUMCON,ioos:station:LUMCON:wisl1:1,2019-09-01T11:00:00Z,29.1144,-90.1840,2.404,21.18,11111222 
LUMCON,ioos:station:LUMCON:wisl1:1,2019-09-01T11:15:00Z,29.1144,-90.1840,2.41,21.18,11111222 
LUMCON,ioos:station:LUMCON:wisl1:1,2019-09-01T11:30:00Z,29.1144,-90.1840,2.412,21.22,11111222 
LUMCON,ioos:station:LUMCON:wisl1:1,2019-09-01T11:45:00Z,29.1144,-90.1840,2.421,21.23,11111222 
LUMCON,ioos:station:LUMCON:wisl1:1,2019-09-01T12:00:00Z,29.1144,-90.1840,2.427,21.29,11111222 
LUMCON,ioos:station:LUMCON:wisl1:1,2019-09-01T12:15:00Z,29.1144,-90.1840,2.433,21.36,11111222 
LUMCON,ioos:station:LUMCON:wisl1:1,2019-09-01T12:30:00Z,29.1144,-90.1840,2.441,21.43,11111222 
LUMCON,ioos:station:LUMCON:wisl1:1,2019-09-01T12:45:00Z,29.1144,-90.1840,2.447,21.5,11111222 
LUMCON,ioos:station:LUMCON:wisl1:1,2019-09-01T13:00:00Z,29.1144,-90.1840,2.453,21.56,11111222 
LUMCON,ioos:station:LUMCON:wisl1:1,2019-09-01T13:15:00Z,29.1144,-90.1840,2.46,21.58,11111222 
LUMCON,ioos:station:LUMCON:wisl1:1,2019-09-01T13:30:00Z,29.1144,-90.1840,2.466,21.66,11111222 
LUMCON,ioos:station:LUMCON:wisl1:1,2019-09-01T13:45:00Z,29.1144,-90.1840,2.474,21.75,11111222 
LUMCON,ioos:station:LUMCON:wisl1:1,2019-09-01T14:00:00Z,29.1144,-90.1840,2.474,21.9,11111222 
LUMCON,ioos:station:LUMCON:wisl1:1,2019-09-01T14:15:00Z,29.1144,-90.1840,2.486,21.95,11111222 
LUMCON,ioos:station:LUMCON:wisl1:1,2019-09-01T14:30:00Z,29.1144,-90.1840,2.485,22.03,11111222 
LUMCON,ioos:station:LUMCON:wisl1:1,2019-09-01T14:45:00Z,29.1144,-90.1840,2.488,22.11,11111222 
LUMCON,ioos:station:LUMCON:wisl1:1,2019-09-01T15:00:00Z,29.1144,-90.1840,2.498,22.1,11111222 
LUMCON,ioos:station:LUMCON:wisl1:1,2019-09-01T15:15:00Z,29.1144,-90.1840,2.508,22.15,11111222 
LUMCON,ioos:station:LUMCON:wisl1:1,2019-09-01T15:30:00Z,29.1144,-90.1840,2.499,22.18,11111222 
LUMCON,ioos:station:LUMCON:wisl1:1,2019-09-01T15:45:00Z,29.1144,-90.1840,2.482,22.38,11111222 
LUMCON,ioos:station:LUMCON:wisl1:1,2019-09-01T16:00:00Z,29.1144,-90.1840,2.499,22.45,11111222 
LUMCON,ioos:station:LUMCON:wisl1:1,2019-09-01T16:15:00Z,29.1144,-90.1840,2.494,22.51,11111222 
LUMCON,ioos:station:LUMCON:wisl1:1,2019-09-01T16:30:00Z,29.1144,-90.1840,2.491,22.53,11111222 
LUMCON,ioos:station:LUMCON:wisl1:1,2019-09-01T16:45:00Z,29.1144,-90.1840,2.5,22.44,11111222 
LUMCON,ioos:station:LUMCON:wisl1:1,2019-09-01T17:00:00Z,29.1144,-90.1840,2.51,22.17,11111222 
LUMCON,ioos:station:LUMCON:wisl1:1,2019-09-01T17:15:00Z,29.1144,-90.1840,2.522,22.18,11111222 
LUMCON,ioos:station:LUMCON:wisl1:1,2019-09-01T17:30:00Z,29.1144,-90.1840,2.521,22.21,11111222 
LUMCON,ioos:station:LUMCON:wisl1:1,2019-09-01T17:45:00Z,29.1144,-90.1840,2.537,22.33,11111222 
LUMCON,ioos:station:LUMCON:wisl1:1,2019-09-01T18:00:00Z,29.1144,-90.1840,2.54,22.42,11111222 
LUMCON,ioos:station:LUMCON:wisl1:1,2019-09-01T18:15:00Z,29.1144,-90.1840,2.526,22.61,11111222 
LUMCON,ioos:station:LUMCON:wisl1:1,2019-09-01T18:30:00Z,29.1144,-90.1840,2.539,22.71,11111222 
LUMCON,ioos:station:LUMCON:wisl1:1,2019-09-01T18:45:00Z,29.1144,-90.1840,2.528,22.75,11111222 
LUMCON,ioos:station:LUMCON:wisl1:1,2019-09-01T19:00:00Z,29.1144,-90.1840,2.511,22.82,11111222 
LUMCON,ioos:station:LUMCON:wisl1:1,2019-09-01T19:15:00Z,29.1144,-90.1840,2.51,22.84,11111222 
LUMCON,ioos:station:LUMCON:wisl1:1,2019-09-01T19:30:00Z,29.1144,-90.1840,2.501,22.88,11111222 
LUMCON,ioos:station:LUMCON:wisl1:1,2019-09-01T19:45:00Z,29.1144,-90.1840,2.496,22.88,11111222 
LUMCON,ioos:station:LUMCON:wisl1:1,2019-09-01T20:00:00Z,29.1144,-90.1840,2.495,22.87,11111222 
LUMCON,ioos:station:LUMCON:wisl1:1,2019-09-01T20:15:00Z,29.1144,-90.1840,2.5,22.83,11111222 
LUMCON,ioos:station:LUMCON:wisl1:1,2019-09-01T20:30:00Z,29.1144,-90.1840,2.499,22.69,11111222 
LUMCON,ioos:station:LUMCON:wisl1:1,2019-09-01T20:45:00Z,29.1144,-90.1840,2.499,22.68,11111222 
LUMCON,ioos:station:LUMCON:wisl1:1,2019-09-01T21:00:00Z,29.1144,-90.1840,2.501,22.68,11111222 
LUMCON,ioos:station:LUMCON:wisl1:1,2019-09-01T21:15:00Z,29.1144,-90.1840,2.496,22.65,11111222 
LUMCON,ioos:station:LUMCON:wisl1:1,2019-09-01T21:30:00Z,29.1144,-90.1840,2.493,22.59,11111222 
LUMCON,ioos:station:LUMCON:wisl1:1,2019-09-01T21:45:00Z,29.1144,-90.1840,2.491,22.51,11111222 
LUMCON,ioos:station:LUMCON:wisl1:1,2019-09-01T22:00:00Z,29.1144,-90.1840,2.487,22.45,11111222 
LUMCON,ioos:station:LUMCON:wisl1:1,2019-09-01T22:15:00Z,29.1144,-90.1840,2.468,22.57,11111222 
LUMCON,ioos:station:LUMCON:wisl1:1,2019-09-01T22:30:00Z,29.1144,-90.1840,2.458,22.18,11111222 
LUMCON,ioos:station:LUMCON:wisl1:1,2019-09-01T22:45:00Z,29.1144,-90.1840,2.44,21.97,11111222 
LUMCON,ioos:station:LUMCON:wisl1:1,2019-09-01T23:00:00Z,29.1144,-90.1840,2.435,21.84,11111222 
LUMCON,ioos:station:LUMCON:wisl1:1,2019-09-01T23:15:00Z,29.1144,-90.1840,2.43,21.81,11111222 
LUMCON,ioos:station:LUMCON:wisl1:1,2019-09-01T23:30:00Z,29.1144,-90.1840,2.426,21.89,11111222 
LUMCON,ioos:station:LUMCON:wisl1:1,2019-09-01T23:45:00Z,29.1144,-90.1840,2.427,21.89,11111222 
LUMCON,ioos:station:LUMCON:wisl1:1,2019-09-02T00:00:00Z,29.1144,-90.1840,2.429,21.85,11111222 
LUMCON,ioos:station:LUMCON:wisl1:1,2019-09-02T00:15:00Z,29.1144,-90.1840,2.43,21.87,11111222 
LUMCON,ioos:station:LUMCON:wisl1:1,2019-09-02T00:30:00Z,29.1144,-90.1840,2.43,21.87,11111222 
LUMCON,ioos:station:LUMCON:wisl1:1,2019-09-02T00:45:00Z,29.1144,-90.1840,2.424,21.87,11111222 
LUMCON,ioos:station:LUMCON:wisl1:1,2019-09-02T01:00:00Z,29.1144,-90.1840,2.426,21.79,11111222 
LUMCON,ioos:station:LUMCON:wisl1:1,2019-09-02T01:15:00Z,29.1144,-90.1840,2.422,21.74,11111222 
LUMCON,ioos:station:LUMCON:wisl1:1,2019-09-02T01:30:00Z,29.1144,-90.1840,2.421,21.68,11111222 
LUMCON,ioos:station:LUMCON:wisl1:1,2019-09-02T01:45:00Z,29.1144,-90.1840,2.416,21.63,11111222 
LUMCON,ioos:station:LUMCON:wisl1:1,2019-09-02T02:00:00Z,29.1144,-90.1840,2.414,21.62,11111222 
LUMCON,ioos:station:LUMCON:wisl1:1,2019-09-02T02:15:00Z,29.1144,-90.1840,2.413,21.58,11111222 
LUMCON,ioos:station:LUMCON:wisl1:1,2019-09-02T02:30:00Z,29.1144,-90.1840,2.416,21.58,11111222 
LUMCON,ioos:station:LUMCON:wisl1:1,2019-09-02T02:45:00Z,29.1144,-90.1840,2.418,21.54,11111222 
LUMCON,ioos:station:LUMCON:wisl1:1,2019-09-02T03:00:00Z,29.1144,-90.1840,2.419,21.56,11111222 
LUMCON,ioos:station:LUMCON:wisl1:1,2019-09-02T03:15:00Z,29.1144,-90.1840,2.422,21.51,11111222 
LUMCON,ioos:station:LUMCON:wisl1:1,2019-09-02T03:30:00Z,29.1144,-90.1840,2.428,21.45,11111222 
LUMCON,ioos:station:LUMCON:wisl1:1,2019-09-02T03:45:00Z,29.1144,-90.1840,2.428,21.42,11111222 
LUMCON,ioos:station:LUMCON:wisl1:1,2019-09-02T04:00:00Z,29.1144,-90.1840,2.425,21.36,11111222 
LUMCON,ioos:station:LUMCON:wisl1:1,2019-09-02T04:15:00Z,29.1144,-90.1840,2.429,21.43,11111222 
LUMCON,ioos:station:LUMCON:wisl1:1,2019-09-02T04:30:00Z,29.1144,-90.1840,2.428,21.38,11111222 
LUMCON,ioos:station:LUMCON:wisl1:1,2019-09-02T04:45:00Z,29.1144,-90.1840,2.435,21.43,11111222 
LUMCON,ioos:station:LUMCON:wisl1:1,2019-09-02T05:00:00Z,29.1144,-90.1840,2.439,21.31,11111222 
LUMCON,ioos:station:LUMCON:wisl1:1,2019-09-02T05:15:00Z,29.1144,-90.1840,2.443,21.57,11111222 
LUMCON,ioos:station:LUMCON:wisl1:1,2019-09-02T05:30:00Z,29.1144,-90.1840,2.45,21.65,11111222 
LUMCON,ioos:station:LUMCON:wisl1:1,2019-09-02T05:45:00Z,29.1144,-90.1840,2.447,21.62,11111222 
LUMCON,ioos:station:LUMCON:wisl1:1,2019-09-02T06:00:00Z,29.1144,-90.1840,2.46,21.55,11111222 
LUMCON,ioos:station:LUMCON:wisl1:1,2019-09-02T06:15:00Z,29.1144,-90.1840,2.462,21.37,11111222 
LUMCON,ioos:station:LUMCON:wisl1:1,2019-09-02T06:30:00Z,29.1144,-90.1840,2.47,21.34,11111222 
LUMCON,ioos:station:LUMCON:wisl1:1,2019-09-02T06:45:00Z,29.1144,-90.1840,2.477,21.37,11111222 
LUMCON,ioos:station:LUMCON:wisl1:1,2019-09-02T07:00:00Z,29.1144,-90.1840,2.48,21.49,11111222 
LUMCON,ioos:station:LUMCON:wisl1:1,2019-09-02T07:15:00Z,29.1144,-90.1840,2.483,21.56,11111222 
LUMCON,ioos:station:LUMCON:wisl1:1,2019-09-02T07:30:00Z,29.1144,-90.1840,2.489,21.57,11111222 
LUMCON,ioos:station:LUMCON:wisl1:1,2019-09-02T07:45:00Z,29.1144,-90.1840,2.496,21.61,11111222 
LUMCON,ioos:station:LUMCON:wisl1:1,2019-09-02T08:00:00Z,29.1144,-90.1840,2.491,21.68,11111222 
LUMCON,ioos:station:LUMCON:wisl1:1,2019-09-02T08:15:00Z,29.1144,-90.1840,2.488,21.68,11111222 
LUMCON,ioos:station:LUMCON:wisl1:1,2019-09-02T08:30:00Z,29.1144,-90.1840,2.494,21.7,11111222 
LUMCON,ioos:station:LUMCON:wisl1:1,2019-09-02T08:45:00Z,29.1144,-90.1840,2.498,21.76,11111222 
LUMCON,ioos:station:LUMCON:wisl1:1,2019-09-02T09:00:00Z,29.1144,-90.1840,2.492,21.83,11111222 
LUMCON,ioos:station:LUMCON:wisl1:1,2019-09-02T09:15:00Z,29.1144,-90.1840,2.495,21.91,11111222 
LUMCON,ioos:station:LUMCON:wisl1:1,2019-09-02T09:30:00Z,29.1144,-90.1840,2.498,21.99,11111222 
LUMCON,ioos:station:LUMCON:wisl1:1,2019-09-02T09:45:00Z,29.1144,-90.1840,2.498,22.17,11111222 
LUMCON,ioos:station:LUMCON:wisl1:1,2019-09-02T10:00:00Z,29.1144,-90.1840,2.504,21.76,11111222 
LUMCON,ioos:station:LUMCON:wisl1:1,2019-09-02T10:15:00Z,29.1144,-90.1840,2.508,21.38,11111222 
LUMCON,ioos:station:LUMCON:wisl1:1,2019-09-02T10:30:00Z,29.1144,-90.1840,2.505,20.99,11111222 
LUMCON,ioos:station:LUMCON:wisl1:1,2019-09-02T10:45:00Z,29.1144,-90.1840,2.508,20.63,11111222 
LUMCON,ioos:station:LUMCON:wisl1:1,2019-09-02T11:00:00Z,29.1144,-90.1840,2.513,20.62,11111222 
LUMCON,ioos:station:LUMCON:wisl1:1,2019-09-02T11:15:00Z,29.1144,-90.1840,2.512,20.49,11111222 
LUMCON,ioos:station:LUMCON:wisl1:1,2019-09-02T11:30:00Z,29.1144,-90.1840,2.508,20.43,11111222 
LUMCON,ioos:station:LUMCON:wisl1:1,2019-09-02T11:45:00Z,29.1144,-90.1840,2.505,20.59,11111222 
LUMCON,ioos:station:LUMCON:wisl1:1,2019-09-02T12:00:00Z,29.1144,-90.1840,2.503,20.94,11111222 
LUMCON,ioos:station:LUMCON:wisl1:1,2019-09-02T12:15:00Z,29.1144,-90.1840,2.495,21.53,11111222 
LUMCON,ioos:station:LUMCON:wisl1:1,2019-09-02T12:30:00Z,29.1144,-90.1840,2.487,21.49,11111222 
LUMCON,ioos:station:LUMCON:wisl1:1,2019-09-02T12:45:00Z,29.1144,-90.1840,2.484,21.7,11111222 
LUMCON,ioos:station:LUMCON:wisl1:1,2019-09-02T13:30:00Z,29.1144,-90.1840,2.478,21.53,11111222 
LUMCON,ioos:station:LUMCON:wisl1:1,2019-09-02T13:45:00Z,29.1144,-90.1840,2.483,21.58,11111222 
LUMCON,ioos:station:LUMCON:wisl1:1,2019-09-02T14:00:00Z,29.1144,-90.1840,2.475,21.63,11111222 
LUMCON,ioos:station:LUMCON:wisl1:1,2019-09-02T14:15:00Z,29.1144,-90.1840,2.478,21.69,11111222 
LUMCON,ioos:station:LUMCON:wisl1:1,2019-09-02T14:30:00Z,29.1144,-90.1840,2.474,21.76,11111222 
LUMCON,ioos:station:LUMCON:wisl1:1,2019-09-02T14:45:00Z,29.1144,-90.1840,2.473,21.69,11111222 
LUMCON,ioos:station:LUMCON:wisl1:1,2019-09-02T15:00:00Z,29.1144,-90.1840,2.469,21.61,11111222 
LUMCON,ioos:station:LUMCON:wisl1:1,2019-09-02T15:15:00Z,29.1144,-90.1840,2.471,21.59,11111222 
LUMCON,ioos:station:LUMCON:wisl1:1,2019-09-02T15:30:00Z,29.1144,-90.1840,2.467,21.58,11111222 
LUMCON,ioos:station:LUMCON:wisl1:1,2019-09-02T15:45:00Z,29.1144,-90.1840,2.469,21.55,11111222 
LUMCON,ioos:station:LUMCON:wisl1:1,2019-09-02T16:00:00Z,29.1144,-90.1840,2.461,21.45,11111222 
LUMCON,ioos:station:LUMCON:wisl1:1,2019-09-02T16:15:00Z,29.1144,-90.1840,2.462,21.41,11111222 
LUMCON,ioos:station:LUMCON:wisl1:1,2019-09-02T16:30:00Z,29.1144,-90.1840,2.461,21.34,11111222 
LUMCON,ioos:station:LUMCON:wisl1:1,2019-09-02T16:45:00Z,29.1144,-90.1840,2.462,21.24,11111222 
LUMCON,ioos:station:LUMCON:wisl1:1,2019-09-02T17:00:00Z,29.1144,-90.1840,2.466,21.23,11111222 
LUMCON,ioos:station:LUMCON:wisl1:1,2019-09-02T17:15:00Z,29.1144,-90.1840,2.478,21.21,11111222 
LUMCON,ioos:station:LUMCON:wisl1:1,2019-09-02T17:30:00Z,29.1144,-90.1840,2.476,21.12,11111222 
LUMCON,ioos:station:LUMCON:wisl1:1,2019-09-02T17:45:00Z,29.1144,-90.1840,2.48,21.32,11111222 
LUMCON,ioos:station:LUMCON:wisl1:1,2019-09-02T18:00:00Z,29.1144,-90.1840,2.483,21.44,11111222 
LUMCON,ioos:station:LUMCON:wisl1:1,2019-09-02T18:15:00Z,29.1144,-90.1840,2.49,21.21,11111222 
LUMCON,ioos:station:LUMCON:wisl1:1,2019-09-02T18:30:00Z,29.1144,-90.1840,2.483,21.17,11111222 
LUMCON,ioos:station:LUMCON:wisl1:1,2019-09-02T18:45:00Z,29.1144,-90.1840,2.483,20.95,11111222 
LUMCON,ioos:station:LUMCON:wisl1:1,2019-09-02T19:00:00Z,29.1144,-90.1840,2.481,21.05,11111222 
LUMCON,ioos:station:LUMCON:wisl1:1,2019-09-02T19:15:00Z,29.1144,-90.1840,2.475,21.05,11111222 
LUMCON,ioos:station:LUMCON:wisl1:1,2019-09-02T19:30:00Z,29.1144,-90.1840,2.473,21.06,11111222 
LUMCON,ioos:station:LUMCON:wisl1:1,2019-09-02T19:45:00Z,29.1144,-90.1840,2.474,21.08,11111222 
LUMCON,ioos:station:LUMCON:wisl1:1,2019-09-02T20:00:00Z,29.1144,-90.1840,2.473,21.08,11111222 
LUMCON,ioos:station:LUMCON:wisl1:1,2019-09-02T20:15:00Z,29.1144,-90.1840,2.473,21.08,11111222 
LUMCON,ioos:station:LUMCON:wisl1:1,2019-09-02T20:30:00Z,29.1144,-90.1840,2.477,21.14,11111222 
LUMCON,ioos:station:LUMCON:wisl1:1,2019-09-02T20:45:00Z,29.1144,-90.1840,2.477,21.18,11111222 
LUMCON,ioos:station:LUMCON:wisl1:1,2019-09-02T21:00:00Z,29.1144,-90.1840,2.482,21.28,11111222 
LUMCON,ioos:station:LUMCON:wisl1:1,2019-09-02T21:15:00Z,29.1144,-90.1840,2.485,21.28,11111222 
LUMCON,ioos:station:LUMCON:wisl1:1,2019-09-02T21:30:00Z,29.1144,-90.1840,2.487,21.36,11111222 
LUMCON,ioos:station:LUMCON:wisl1:1,2019-09-02T21:45:00Z,29.1144,-90.1840,2.492,21.37,11111222 
LUMCON,ioos:station:LUMCON:wisl1:1,2019-09-02T22:00:00Z,29.1144,-90.1840,2.496,21.41,11111222 
LUMCON,ioos:station:LUMCON:wisl1:1,2019-09-02T22:15:00Z,29.1144,-90.1840,2.494,21.4,11111222 
LUMCON,ioos:station:LUMCON:wisl1:1,2019-09-02T22:30:00Z,29.1144,-90.1840,2.498,21.22,11111222 
LUMCON,ioos:station:LUMCON:wisl1:1,2019-09-02T22:45:00Z,29.1144,-90.1840,2.492,20.85,11111222 
LUMCON,ioos:station:LUMCON:wisl1:1,2019-09-02T23:00:00Z,29.1144,-90.1840,2.488,20.72,11111222 
LUMCON,ioos:station:LUMCON:wisl1:1,2019-09-02T23:15:00Z,29.1144,-90.1840,2.491,20.62,11111222 
LUMCON,ioos:station:LUMCON:wisl1:1,2019-09-02T23:30:00Z,29.1144,-90.1840,2.493,20.56,11111222 
LUMCON,ioos:station:LUMCON:wisl1:1,2019-09-02T23:45:00Z,29.1144,-90.1840,2.495,20.36,11111222 
LUMCON,ioos:station:LUMCON:wisl1:1,2019-09-03T00:00:00Z,29.1144,-90.1840,2.494,20.16,11111222 
LUMCON,ioos:station:LUMCON:wisl1:1,2019-09-03T00:15:00Z,29.1144,-90.1840,2.492,19.94,11111222 
LUMCON,ioos:station:LUMCON:wisl1:1,2019-09-03T00:30:00Z,29.1144,-90.1840,2.487,19.75,11111222 
LUMCON,ioos:station:LUMCON:wisl1:1,2019-09-03T00:45:00Z,29.1144,-90.1840,2.491,20.51,11111222 
LUMCON,ioos:station:LUMCON:wisl1:1,2019-09-03T01:00:00Z,29.1144,-90.1840,2.497,19.64,11111222 
LUMCON,ioos:station:LUMCON:wisl1:1,2019-09-03T01:15:00Z,29.1144,-90.1840,2.499,19.15,11111222 
LUMCON,ioos:station:LUMCON:wisl1:1,2019-09-03T01:30:00Z,29.1144,-90.1840,2.506,19.03,11111222 
LUMCON,ioos:station:LUMCON:wisl1:1,2019-09-03T01:45:00Z,29.1144,-90.1840,2.508,18.89,11111222 
LUMCON,ioos:station:LUMCON:wisl1:1,2019-09-03T02:00:00Z,29.1144,-90.1840,2.516,18.77,11111222 
LUMCON,ioos:station:LUMCON:wisl1:1,2019-09-03T02:15:00Z,29.1144,-90.1840,2.518,18.61,11111222 
LUMCON,ioos:station:LUMCON:wisl1:1,2019-09-03T02:30:00Z,29.1144,-90.1840,2.519,18.52,11111222 
LUMCON,ioos:station:LUMCON:wisl1:1,2019-09-03T02:45:00Z,29.1144,-90.1840,2.522,18.37,11111222 
LUMCON,ioos:station:LUMCON:wisl1:1,2019-09-03T03:00:00Z,29.1144,-90.1840,2.529,18.26,11111222 
LUMCON,ioos:station:LUMCON:wisl1:1,2019-09-03T03:15:00Z,29.1144,-90.1840,2.536,18.16,11111222 
LUMCON,ioos:station:LUMCON:wisl1:1,2019-09-03T03:30:00Z,29.1144,-90.1840,2.543,18.19,11111222 
LUMCON,ioos:station:LUMCON:wisl1:1,2019-09-03T03:45:00Z,29.1144,-90.1840,2.544,18.17,11111222 
LUMCON,ioos:station:LUMCON:wisl1:1,2019-09-03T04:00:00Z,29.1144,-90.1840,2.545,17.99,11111222 
LUMCON,ioos:station:LUMCON:wisl1:1,2019-09-03T04:15:00Z,29.1144,-90.1840,2.544,17.91,11111222 
LUMCON,ioos:station:LUMCON:wisl1:1,2019-09-03T04:30:00Z,29.1144,-90.1840,2.543,18.03,11111222 
LUMCON,ioos:station:LUMCON:wisl1:1,2019-09-03T04:45:00Z,29.1144,-90.1840,2.549,18.03,11111222 
LUMCON,ioos:station:LUMCON:wisl1:1,2019-09-03T05:00:00Z,29.1144,-90.1840,2.547,17.98,11111222 
LUMCON,ioos:station:LUMCON:wisl1:1,2019-09-03T05:15:00Z,29.1144,-90.1840,2.547,17.94,11111222 
LUMCON,ioos:station:LUMCON:wisl1:1,2019-09-03T05:30:00Z,29.1144,-90.1840,2.546,17.98,11111222 
LUMCON,ioos:station:LUMCON:wisl1:1,2019-09-03T05:45:00Z,29.1144,-90.1840,2.55,18.08,11111222 
LUMCON,ioos:station:LUMCON:wisl1:1,2019-09-03T06:00:00Z,29.1144,-90.1840,2.551,18.04,11111222 
LUMCON,ioos:station:LUMCON:wisl1:1,2019-09-03T06:15:00Z,29.1144,-90.1840,2.556,18.12,11111222 
LUMCON,ioos:station:LUMCON:wisl1:1,2019-09-03T06:30:00Z,29.1144,-90.1840,2.562,18.13,11111222 
LUMCON,ioos:station:LUMCON:wisl1:1,2019-09-03T06:45:00Z,29.1144,-90.1840,2.566,18.09,11111222 
LUMCON,ioos:station:LUMCON:wisl1:1,2019-09-03T07:00:00Z,29.1144,-90.1840,2.563,18.11,11111222 
LUMCON,ioos:station:LUMCON:wisl1:1,2019-09-03T07:15:00Z,29.1144,-90.1840,2.563,18.14,11111222 
LUMCON,ioos:station:LUMCON:wisl1:1,2019-09-03T07:30:00Z,29.1144,-90.1840,2.564,18.12,11111222 
LUMCON,ioos:station:LUMCON:wisl1:1,2019-09-03T07:45:00Z,29.1144,-90.1840,2.568,18.17,11111222 
LUMCON,ioos:station:LUMCON:wisl1:1,2019-09-03T08:00:00Z,29.1144,-90.1840,2.567,18.19,11111222 
LUMCON,ioos:station:LUMCON:wisl1:1,2019-09-03T08:15:00Z,29.1144,-90.1840,2.565,18.15,11111222 
LUMCON,ioos:station:LUMCON:wisl1:1,2019-09-03T08:30:00Z,29.1144,-90.1840,2.563,18.14,11111222 
LUMCON,ioos:station:LUMCON:wisl1:1,2019-09-03T08:45:00Z,29.1144,-90.1840,2.56,18.07,11111222 
LUMCON,ioos:station:LUMCON:wisl1:1,2019-09-03T09:00:00Z,29.1144,-90.1840,2.558,18.1,11111222 
LUMCON,ioos:station:LUMCON:wisl1:1,2019-09-03T09:15:00Z,29.1144,-90.1840,2.555,18.59,11111222 
LUMCON,ioos:station:LUMCON:wisl1:1,2019-09-03T09:30:00Z,29.1144,-90.1840,2.548,19.07,11111222 
LUMCON,ioos:station:LUMCON:wisl1:1,2019-09-03T09:45:00Z,29.1144,-90.1840,2.543,18.81,11111222 
LUMCON,ioos:station:LUMCON:wisl1:1,2019-09-03T10:00:00Z,29.1144,-90.1840,2.532,18.92,11111222 
LUMCON,ioos:station:LUMCON:wisl1:1,2019-09-03T10:15:00Z,29.1144,-90.1840,2.537,19.05,11111222 
LUMCON,ioos:station:LUMCON:wisl1:1,2019-09-03T10:30:00Z,29.1144,-90.1840,2.532,19.31,11111222 
LUMCON,ioos:station:LUMCON:wisl1:1,2019-09-03T10:45:00Z,29.1144,-90.1840,2.529,19.17,11111222 
LUMCON,ioos:station:LUMCON:wisl1:1,2019-09-03T11:00:00Z,29.1144,-90.1840,2.526,19.22,11111222 
LUMCON,ioos:station:LUMCON:wisl1:1,2019-09-03T11:15:00Z,29.1144,-90.1840,2.523,19.28,11111222 
LUMCON,ioos:station:LUMCON:wisl1:1,2019-09-03T11:30:00Z,29.1144,-90.1840,2.518,19.21,11111222 
LUMCON,ioos:station:LUMCON:wisl1:1,2019-09-03T11:45:00Z,29.1144,-90.1840,2.515,19.48,11111222 
LUMCON,ioos:station:LUMCON:wisl1:1,2019-09-03T12:00:00Z,29.1144,-90.1840,2.507,19.4,11111222 
LUMCON,ioos:station:LUMCON:wisl1:1,2019-09-03T12:15:00Z,29.1144,-90.1840,2.503,19.47,11111222 
LUMCON,ioos:station:LUMCON:wisl1:1,2019-09-03T12:30:00Z,29.1144,-90.1840,2.496,19.65,11111222 
LUMCON,ioos:station:LUMCON:wisl1:1,2019-09-03T12:45:00Z,29.1144,-90.1840,2.49,19.76,11111222 
LUMCON,ioos:station:LUMCON:wisl1:1,2019-09-03T13:00:00Z,29.1144,-90.1840,2.484,19.77,11111222 
LUMCON,ioos:station:LUMCON:wisl1:1,2019-09-03T13:15:00Z,29.1144,-90.1840,2.474,19.85,11111222 
LUMCON,ioos:station:LUMCON:wisl1:1,2019-09-03T13:30:00Z,29.1144,-90.1840,2.469,19.86,11111222 
LUMCON,ioos:station:LUMCON:wisl1:1,2019-09-03T13:45:00Z,29.1144,-90.1840,2.466,19.93,11111222 
LUMCON,ioos:station:LUMCON:wisl1:1,2019-09-03T14:00:00Z,29.1144,-90.1840,2.454,20.04,11111222 
LUMCON,ioos:station:LUMCON:wisl1:1,2019-09-03T14:15:00Z,29.1144,-90.1840,2.448,20.21,11111222 
LUMCON,ioos:station:LUMCON:wisl1:1,2019-09-03T14:30:00Z,29.1144,-90.1840,2.445,20.06,11111222 
LUMCON,ioos:station:LUMCON:wisl1:1,2019-09-03T14:45:00Z,29.1144,-90.1840,2.437,20.01,11111222 
LUMCON,ioos:station:LUMCON:wisl1:1,2019-09-03T15:00:00Z,29.1144,-90.1840,2.424,20.14,11111222 
LUMCON,ioos:station:LUMCON:wisl1:1,2019-09-03T15:15:00Z,29.1144,-90.1840,2.416,20.02,11111222 